TimeMST,TemperatureF,Dew PointF,Humidity,Sea Level PressureIn,VisibilityMPH,Wind Direction,Wind SpeedMPH,Gust SpeedMPH,PrecipitationIn,Events,Conditions,WindDirDegrees,DateUTC
12:54 AM,41.0,16.0,36,30.05,10.0,NW,5.8,-,N/A,,Clear,310,2012-11-19 07:54:00
1:54 AM,35.1,15.1,44,30.10,10.0,North,5.8,-,N/A,,Clear,360,2012-11-19 08:54:00
2:54 AM,48.0,16.0,28,30.04,10.0,NNW,20.7,27.6,N/A,,Clear,330,2012-11-19 09:54:00
3:54 AM,42.1,15.1,34,30.09,10.0,North,12.7,-,N/A,,Clear,350,2012-11-19 10:54:00
4:54 AM,39.2,15.8,39,30.20,10.0,North,6.9,-,N/A,,Clear,10,2012-11-19 11:54:00
5:54 AM,39.0,15.1,38,30.16,10.0,North,8.1,-,N/A,,Clear,350,2012-11-19 12:54:00
6:54 AM,37.9,15.1,39,30.23,10.0,WNW,4.6,-,N/A,,Clear,290,2012-11-19 13:54:00
7:54 AM,43.0,17.1,35,30.25,10.0,Calm,Calm,-,N/A,,Clear,0,2012-11-19 14:54:00
8:54 AM,50.0,15.1,25,30.24,10.0,WSW,5.8,-,N/A,,Clear,240,2012-11-19 15:54:00
9:54 AM,55.0,16.0,22,30.23,10.0,Calm,Calm,-,N/A,,Clear,0,2012-11-19 16:54:00
10:54 AM,55.9,14.0,19,30.22,10.0,Calm,Calm,-,N/A,,Clear,0,2012-11-19 17:54:00
11:54 AM,57.9,14.0,18,30.18,10.0,SSE,9.2,-,N/A,,Scattered Clouds,160,2012-11-19 18:54:00
12:54 PM,57.9,12.9,17,30.16,10.0,South,5.8,-,N/A,,Scattered Clouds,190,2012-11-19 19:54:00
1:54 PM,57.0,15.1,19,30.19,10.0,SE,8.1,-,N/A,,Scattered Clouds,130,2012-11-19 20:54:00
2:54 PM,57.0,14.0,18,30.12,10.0,SSE,5.8,-,N/A,,Partly Cloudy,150,2012-11-19 21:54:00
3:54 PM,55.0,14.0,20,30.18,10.0,SSE,10.4,-,N/A,,Clear,150,2012-11-19 22:54:00
4:54 PM,50.0,14.0,24,30.22,10.0,SSE,9.2,-,N/A,,Clear,160,2012-11-19 23:54:00
5:54 PM,46.9,14.0,27,30.24,10.0,South,10.4,-,N/A,,Clear,170,2012-11-20 00:54:00
6:54 PM,44.1,14.0,30,30.26,10.0,South,15.0,-,N/A,,Clear,190,2012-11-20 01:54:00
7:54 PM,42.1,16.0,35,30.26,10.0,East,5.8,-,N/A,,Clear,100,2012-11-20 02:54:00
8:54 PM,36.0,16.0,44,30.27,10.0,NNE,5.8,-,N/A,,Clear,20,2012-11-20 03:54:00
9:54 PM,37.0,18.0,46,30.23,10.0,NNE,6.9,-,N/A,,Clear,30,2012-11-20 04:54:00
10:54 PM,35.1,17.1,48,30.22,10.0,NNE,5.8,-,N/A,,Clear,30,2012-11-20 05:54:00
11:54 PM,33.1,16.0,50,30.23,10.0,NNE,8.1,-,N/A,,Clear,20,2012-11-20 06:54:00